SES-6

Last updated on Thu Jul 03 2025 00:02:46 GMT+0000 (Coordinated Universal Time)

1 39172U 13026A 25183.48718706 -.00000254 00000+0 00000+0 0 9994 2 39172 0.0197 26.5050 0002567 69.6314 319.4998 1.00269925 44216
UTC large
Height (km)
Speed (km/s)
/
Latitude / Longitude
Inclination (degrees)
Orbital Period (minutes)
Azimuth
Elevation
Range (km)
Doppler Factor

Next 0 passes for location: London (51.5072 / 0.1276)

Sorry there are no passes over London.